Weather History for Jackson, MI

Change the Weather History Date:

Sunday, February 10, 2013

  Actual Average Record
Temperature  
Mean Temperature 30 °F 25 °F  
Max Temperature 40 °F 33 °F 60 °F (2009)
Min Temperature 20 °F 17 °F -11 °F (1978)
Degree Days  
Heating Degree Days 35 40  
Month to date heating degree days 470 405  
Since 1 July heating degree days 4029 4236  
Cooling Degree Days 0 0  
Month to date cooling degree days 0 0  
Year to date cooling degree days 0 0  
Moisture  
Dew Point 25 °F    
Average Humidity 72    
Maximum Humidity 85    
Minimum Humidity 59    
Precipitation  
Precipitation 0.06 in 0.05 in 0.89 in (1959)
Month to date precipitation 0.43 0.41  
Year to date precipitation 3.17 1.90  
Sea Level Pressure  
Sea Level Pressure 29.96 in    
Wind  
Wind Speed 11 mph (SE)    
Max Wind Speed 21 mph    
Max Gust Speed 31 mph    
Visibility 9 miles    
Events Rain , Snow    
T = Trace of Precipitation, MM = Missing Value Source: NWS Daily Summary

Daily Weather History Graph

Daily Weather History Graph

Search for Another Location

Airport:

Trip Planner

Search our weather history database for the weather conditions in past years. The results will help you decide how hot, cold, wet, or windy it might be!

Date:

Astronomy

Feb. 10, 2013 Rise Set
Actual Time 7:40 AM EST 6:04 PM EST
Civil Twilight 7:11 AM EST 6:33 PM EST
Nautical Twilight 6:38 AM EST 7:06 PM EST
Astronomical Twilight 6:05 AM EST 7:39 PM EST
Moon 7:28 AM EST (2/10) 6:56 PM EST (2/10)
Length of Visible Light 11h 21m
Length of Day
10h 23m
New Moon, 0% of the Moon is Illuminated
Feb 10
New Moon
Feb 17
First Quarter
Feb 25
Full
Mar 4
Last Quarter
Mar 11
New

Hourly Weather History & Observations

Time (EST) Temp. Windchill Dew Point Humidity Pressure Visibility Wind Dir Wind Speed Gust Speed Precip Events Conditions
12:56 AM 24.1 °F 15.2 °F 17.1 °F 75% 30.23 in 10.0 mi SE 8.1 mph - N/A   Clear
1:56 AM 21.0 °F 13.4 °F 15.1 °F 78% 30.22 in 10.0 mi SE 5.8 mph - N/A   Clear
2:56 AM 21.0 °F 12.4 °F 16.0 °F 81% 30.20 in 10.0 mi SE 6.9 mph - N/A   Clear
3:56 AM 21.9 °F 13.4 °F 17.1 °F 82% 30.19 in 8.0 mi SE 6.9 mph - N/A   Clear
4:56 AM 23.0 °F 13.9 °F 17.1 °F 78% 30.19 in 9.0 mi SE 8.1 mph - N/A   Clear
5:56 AM 21.9 °F 14.5 °F 17.1 °F 82% 30.19 in 10.0 mi SE 5.8 mph - N/A   Clear
6:56 AM 24.1 °F 16.0 °F 17.1 °F 75% 30.18 in 10.0 mi SE 6.9 mph - N/A   Clear
7:56 AM 25.0 °F 17.1 °F 18.0 °F 75% 30.14 in 9.0 mi ESE 6.9 mph - N/A   Mostly Cloudy
8:56 AM 27.0 °F 20.5 °F 19.0 °F 72% 30.13 in 10.0 mi ESE 5.8 mph - N/A   Overcast
9:56 AM 28.9 °F 20.4 °F 19.9 °F 69% 30.12 in 10.0 mi SE 9.2 mph - N/A   Overcast
10:56 AM 30.9 °F 22.8 °F 21.0 °F 67% 30.12 in 10.0 mi SSE 9.2 mph - N/A   Overcast
11:56 AM 33.1 °F 24.9 °F 21.9 °F 64% 30.08 in 10.0 mi SE 10.4 mph - N/A   Overcast
12:56 PM 35.1 °F 26.4 °F 23.0 °F 61% 30.01 in 10.0 mi SSE 12.7 mph - N/A   Overcast
1:56 PM 36.0 °F 28.0 °F 25.0 °F 64% 29.98 in 10.0 mi SE 11.5 mph - N/A   Overcast
2:05 PM 35.6 °F 28.0 °F 24.8 °F 65% 29.94 in 10.0 mi SE 10.4 mph - N/A   Overcast
2:20 PM 37.4 °F 30.3 °F 24.8 °F 60% 29.92 in 10.0 mi SE 10.4 mph - N/A   Overcast
2:56 PM 37.0 °F 28.1 °F 26.1 °F 65% 29.92 in 10.0 mi SE 15.0 mph - N/A   Overcast
3:56 PM 37.0 °F 29.3 °F 27.0 °F 67% 29.90 in 10.0 mi SE 11.5 mph - N/A   Overcast
4:56 PM 37.0 °F 28.5 °F 28.0 °F 70% 29.84 in 10.0 mi SE 13.8 mph 20.7 mph N/A   Overcast
5:56 PM 36.0 °F 28.0 °F 30.0 °F 79% 29.83 in 5.0 mi SE 11.5 mph 19.6 mph 0.02 in Rain Rain
6:56 PM 36.0 °F 26.3 °F 30.9 °F 82% 29.80 in 10.0 mi SSE 16.1 mph - 0.02 in   Overcast
7:56 PM 37.0 °F 27.0 °F 33.1 °F 86% 29.75 in 8.0 mi SE 18.4 mph 28.8 mph 0.00 in   Overcast
8:43 PM 37.4 °F 29.3 °F 33.8 °F 87% 29.71 in 10.0 mi SSE 12.7 mph 21.9 mph N/A   Overcast
8:56 PM 37.0 °F 28.5 °F 33.1 °F 86% 29.74 in 6.0 mi SSE 13.8 mph - 0.02 in Rain Light Rain
9:56 PM 37.9 °F 29.2 °F 34.0 °F 86% 29.71 in 8.0 mi SSE 15.0 mph - 0.00 in Snow Light Snow
10:36 PM 39.2 °F 30.8 °F 35.6 °F 87% 29.66 in 10.0 mi South 15.0 mph - N/A   Overcast
10:56 PM 39.9 °F 32.5 °F 36.0 °F 86% 29.69 in 10.0 mi South 12.7 mph 25.3 mph N/A   Overcast
11:18 PM 39.2 °F 31.6 °F 35.6 °F 87% 29.66 in 10.0 mi South 12.7 mph - N/A   Overcast
11:56 PM 39.9 °F 33.4 °F 37.0 °F 89% 29.68 in 9.0 mi South 10.4 mph - N/A   Overcast